User: anonymous   Login
Location: Barcelona
(41.3830°N, 2.1830°E)
Time: 04:42:05
(UTC+02:00)
Language:

ISS - Orbit

View from above orbital plane
View from above orbital plane
View from above satellite
View from above satellite

Ground track
Ground track

The orbit data is extracted from the following two-line orbital elements,

1 25544U 98067A   20186.49870341  .00016717  00000-0  10270-3 0  9011
2 25544  51.6430 262.7859 0002581  87.0839 273.0607 15.49162248 34690
Epoch (UTC): 04 July 2020 11:58:07
Eccentricity: 0.0002581
inclination: 51.6430°
perigee height: 417 km
apogee height: 421 km
right ascension of ascending node: 262.7859°
argument of perigee: 87.0839°
revolutions per day: 15.49162248
mean anomaly at epoch: 273.0607°
orbit number at epoch: 3469

The dashed part of the orbit path shows where the satellite is in the earth's shadow,  

DLR